Location: Melbourne
(37.8170°S, 144.9670°E)
Time: 21:45:40
(UTC+10:00)

ISS - All Passes

Search period start: 30 September 2016 00:00
Search period end: 10 October 2016 01:00
Orbit: 400 x 409 km, 51.6° (Epoch: 30 September)

Date Brightness Start Highest point End Pass type
(mag) Time Alt. Az. Time Alt. Az. Time Alt. Az.
30 Sep - 05:56:56 10° NNE 05:58:28 13° NE 06:00:00 10° E daylight
30 Sep - 07:31:16 10° WNW 07:34:35 60° SW 07:37:55 10° SE daylight
30 Sep - 09:09:59 10° SW 09:11:39 13° SSW 09:13:19 10° S daylight
30 Sep - 12:25:09 10° SSW 12:27:08 15° SSE 12:29:06 10° ESE daylight
30 Sep - 14:00:44 10° SW 14:04:05 79° SE 14:07:23 10° NE daylight
01 Oct - 06:39:07 10° NW 06:42:26 67° NE 06:45:47 10° SE daylight
01 Oct - 08:16:48 10° WSW 08:19:13 18° SSW 08:21:39 10° SSE daylight
01 Oct - 11:33:39 10° S 11:34:39 11° SSE 11:35:39 10° SSE daylight
01 Oct - 13:08:41 10° SW 13:11:53 40° SE 13:15:02 10° ENE daylight
01 Oct - 14:45:45 10° W 14:48:09 19° NW 14:50:32 10° N daylight
02 Oct - 06:47:20 10° NNW 06:50:21 32° NE 06:53:23 10° ESE daylight
02 Oct - 08:23:55 10° W 08:26:51 27° SSW 08:29:48 10° SSE daylight
02 Oct - 13:16:46 10° SSW 13:19:35 24° SSE 13:22:22 10° E daylight
02 Oct - 14:53:01 10° WSW 14:56:08 37° NW 14:59:12 10° NNE daylight
03 Oct - 05:56:11 10° N 05:58:21 16° NE 06:00:31 10° E visible
03 Oct - 07:31:19 10° WNW 07:34:33 47° SW 07:37:50 10° SE daylight
03 Oct - 09:10:24 10° SW 09:11:43 12° SSW 09:13:02 10° S daylight
03 Oct - 12:24:55 10° SSW 12:27:10 16° SSE 12:29:24 10° ESE daylight
03 Oct - 14:00:41 10° SW 14:04:02 80° NW 14:07:19 10° NE daylight
04 Oct - 06:38:59 10° NW 06:42:20 88° NE 06:45:43 10° SE daylight
04 Oct - 08:17:03 10° WSW 08:19:13 16° SSW 08:21:24 10° SSE daylight
04 Oct - 11:33:16 10° S 11:34:41 12° SSE 11:36:07 10° SE daylight
04 Oct - 13:08:32 10° SW 13:11:49 51° SE 13:15:03 10° ENE daylight
04 Oct - 14:46:03 10° W 14:47:59 15° NW 14:49:53 10° NNW daylight
05 Oct - 05:47:01 10° NNW 05:50:11 41° NE 05:53:23 10° ESE visible
05 Oct - 07:24:01 10° W 07:26:47 23° SSW 07:29:34 10° SSE daylight
05 Oct - 12:16:31 10° SSW 12:19:30 29° SSE 12:22:27 10° E daylight
05 Oct - 13:53:01 10° WSW 13:55:57 29° NW 13:58:51 10° NNE daylight
06 Oct - 04:55:33 10° N 04:58:07 21° NE 05:00:41 10° E visible
06 Oct - 06:31:16 10° WNW 06:34:26 38° SSW 06:37:36 10° SE daylight
06 Oct - 08:10:48 10° SSW 08:11:40 11° SSW 08:12:33 10° S daylight
06 Oct - 11:24:37 10° SSW 11:27:06 19° SSE 11:29:34 10° ESE daylight
06 Oct - 13:00:32 10° WSW 13:03:51 61° NW 13:07:06 10° NE daylight
07 Oct - 04:05:35 10° NE 04:06:06 10° NE 04:06:38 10° ENE visible
07 Oct - 05:38:48 10° NW 05:42:08 73° SW 05:45:30 10° SE visible
07 Oct - 07:17:13 10° SW 07:19:07 14° SSW 07:21:02 10° SSE daylight
07 Oct - 10:32:50 10° SSW 10:34:36 13° SSE 10:36:21 10° SE daylight
07 Oct - 12:08:17 10° SW 12:11:38 65° SE 12:14:55 10° ENE daylight
07 Oct - 13:46:34 10° WNW 13:47:41 11° NW 13:48:48 10° NNW daylight
08 Oct - 04:46:39 10° NW 04:49:55 54° NE 04:53:13 10° ESE visible
08 Oct - 06:24:02 10° WSW 06:26:37 20° SSW 06:29:13 10° SSE daylight
08 Oct - 09:41:27 10° S 09:42:00 10° SSE 09:42:35 10° SSE daylight
08 Oct - 11:16:12 10° SW 11:19:18 34° SSE 11:22:23 10° E daylight
08 Oct - 12:52:58 10° WSW 12:55:39 22° NW 12:58:19 10° N daylight
09 Oct - 03:54:56 10° N 03:57:46 26° NE 04:00:39 10° ESE visible
09 Oct - 05:31:08 10° W 05:34:11 31° SSW 05:37:15 10° SSE visible
09 Oct - 10:24:12 10° SSW 10:26:53 22° SSE 10:29:34 10° E daylight
09 Oct - 12:00:18 10° WSW 12:03:32 46° NW 12:06:43 10° NNE daylight
